HULIANGWANG DIGUI-04 (62326 NORAD) Tracking and Keplerian Element Data

This shows tracking and keplerian element data for the satellite.

Feedback or suggestion? Click here.




ElementValue
Catalog62326
NameHULIANGWANG DIGUI-04
Epoch Orbit660
Epoch Day34.78248281
Epoch Year2025
RAAN151.7929
Inclination86.504
Eccentricity0.0012798
Argument of Perigee156.406
Mean Anonmoly203.7671
Mean Motion13.3756394
Decay Rate1.03E-06
L11 62326U 24240D 25034.78248281 .00000103 00000+0 16822-3 0 9990
L22 62326 86.5040 151.7929 0012798 156.4060 203.7671 13.37563940 6606



Live tracking and technical data element details for HULIANGWANG DIGUI-04 (NORAD 62326). HULIANGWANG DIGUI-04 can be tracked NOW for your location showing map with azimuth and elevation plus other details from your city location.







IsCatalogInMostPopularTable: catalog: 62326, numindb: 13
Update: records affected: 1



GetName: 62326 HULIANGWANG DIGUI-04

Hit Count: updated at: Mon, 19 May 2025 01:50:37 GMT